Location: Eekwerd
(53.3234°N, 6.7984°E)
Time: 10:46:58
(UTC+00:00)

Intercosmos 24 - Pass Details

Date: 15 May 2026
Orbit: 497 x 2352 km, 82.6° (Epoch: 6 June)

Event Time Altitude Azimuth Distance (km) Brightness Sun altitude
Rises 22:45:47 0° 351° (N) 2,970 9.4 -17.0°
Reaches altitude 10° 22:48:17 10° 358° (N) 1,903 7.9 -17.1°
Maximum altitude 22:52:06 45° 73° (ENE) 707 4.4 -17.2°
Enters shadow 22:53:25 30° 126° (SE) 915 4.6 -17.2°
